Voltar ao catálogo

STARLINK-35616

AtivoComunicaçõesVLEO
NORAD 66255·PAYLOAD·🇺🇸 United States

Lançado Oct 29, 2025 de Cape Canaveral Space Force Station

Loading…

Próximas Passagens (próximas 24 horas)

TLE

AtualizadoSource: CelesTrak SupGP

Época: Sep 14, 2026, 21:20 UTC

1 66255C 25245X   26257.88937500 -.00027968  00000+0 -82711-3 0  2576
2 66255  53.1572 124.0991 0000999  89.5885  55.5615 15.34374323    18

Acompanhe STARLINK-35616 em tempo real com AllMySat

Download on the App Store